This is the latest recevied weather packets stored in our database for station/object OM6ACB-6. If no packets are shown the sender has not sent any weather packets the latest 10 day(s).
| Time | Temp. | Humidity | Pressure | Rain* | Wind** | Luminosity | Snow |
|---|---|---|---|---|---|---|---|
| 1787888419 | 11.11° C | 37% | 1022.4 hPa | 0 mm | - | - | - |
| 1787887818 | 11.11° C | 38% | 1022.5 hPa | 0 mm | - | - | - |
| 1787887218 | 11.11° C | 36% | 1022.4 hPa | 0 mm | - | - | - |
| 1787886618 | 11.67° C | 33% | 1022.4 hPa | 0 mm | - | - | - |
| 1787886018 | 11.67° C | 31% | 1022.4 hPa | 0 mm | - | - | - |
| 1787885417 | 11.67° C | 29% | 1022.5 hPa | 0 mm | - | - | - |
| 1787884817 | 12.22° C | 26% | 1022.5 hPa | 0 mm | - | - | - |
| 1787884217 | 12.78° C | 26% | 1022.7 hPa | 0 mm | - | - | - |
| 1787883616 | 13.89° C | 26% | 1022.9 hPa | 0 mm | - | - | - |
| 1787883016 | 15° C | 25% | 1023.2 hPa | 0 mm | - | - | - |
| 1787882416 | 16.67° C | 24% | 1023.3 hPa | 0 mm | - | - | - |
| 1787881815 | 16.67° C | 24% | 1023.3 hPa | 0 mm | - | - | - |
| 1787881215 | 16.67° C | 24% | 1023.3 hPa | 0 mm | - | - | - |
| 1787880615 | 16.11° C | 25% | 1023.2 hPa | 0 mm | - | - | - |
| 1787880015 | 15° C | 25% | 1023.4 hPa | 0 mm | - | - | - |
| 1787879414 | 16.11° C | 25% | 1023.4 hPa | 0 mm | - | - | - |
| 1787878814 | 17.22° C | 24% | 1023.7 hPa | 0 mm | - | - | - |
| 1787878214 | 17.22° C | 24% | 1023.9 hPa | 0 mm | - | - | - |
| 1787877613 | 17.22° C | 24% | 1024 hPa | 0 mm | - | - | - |
| 1787877013 | 17.22° C | 24% | 1023.9 hPa | 0 mm | - | - | - |
| 1787876413 | 17.22° C | 24% | 1024.1 hPa | 0 mm | - | - | - |
| 1787875813 | 17.22° C | 24% | 1024.1 hPa | 0 mm | - | - | - |
| 1787875212 | 17.78° C | 24% | 1024.2 hPa | 0 mm | - | - | - |
| 1787874612 | 17.78° C | 24% | 1024.1 hPa | 0 mm | - | - | - |
| 1787874012 | 17.78° C | 24% | 1024.1 hPa | 0 mm | - | - | - |
* Rain latest hour (hover to see other rain measurements)
** Current wind speed in m/s (hover to see current wind gust speed)